TimeCDT,TemperatureF,Dew PointF,Humidity,Sea Level PressureIn,VisibilityMPH,Wind Direction,Wind SpeedMPH,Gust SpeedMPH,PrecipitationIn,Events,Conditions,WindDirDegrees,DateUTC
12:15 AM,56.5,50.7,81,29.89,10.0,WNW,3.5,-,N/A,,Clear,290,2013-11-01 05:15:00
4:15 AM,48.7,46.9,93,29.86,10.0,Calm,Calm,-,N/A,,Clear,0,2013-11-01 09:15:00
4:55 AM,47.7,46.2,95,29.87,4.0,Calm,Calm,-,N/A,,Clear,0,2013-11-01 09:55:00
5:15 AM,47.3,45.7,94,29.87,10.0,Calm,Calm,-,N/A,,Clear,0,2013-11-01 10:15:00
5:35 AM,47.5,46.0,95,29.87,10.0,Calm,Calm,-,N/A,,Clear,0,2013-11-01 10:35:00
5:55 AM,47.8,46.2,94,29.88,7.0,Calm,Calm,-,N/A,,Clear,0,2013-11-01 10:55:00
6:15 AM,47.8,46.4,95,29.88,10.0,Calm,Calm,-,N/A,,Clear,0,2013-11-01 11:15:00
6:35 AM,47.3,45.7,94,29.89,10.0,Calm,Calm,-,N/A,,Clear,0,2013-11-01 11:35:00
6:55 AM,47.3,45.7,94,29.89,10.0,Calm,Calm,-,N/A,,Clear,0,2013-11-01 11:55:00
7:15 AM,46.8,45.5,95,29.89,10.0,Calm,Calm,-,N/A,,Clear,0,2013-11-01 12:15:00
7:35 AM,46.6,45.3,95,29.89,10.0,Calm,Calm,-,N/A,,Clear,0,2013-11-01 12:35:00
7:55 AM,47.1,45.7,95,29.89,10.0,Calm,Calm,-,N/A,,Clear,0,2013-11-01 12:55:00
8:15 AM,50.0,48.4,94,29.90,10.0,Calm,Calm,-,N/A,,Clear,0,2013-11-01 13:15:00
8:35 AM,51.8,50.2,94,29.90,10.0,Calm,Calm,-,N/A,,Clear,0,2013-11-01 13:35:00
8:55 AM,53.8,50.9,90,29.91,10.0,Calm,Calm,-,N/A,,Clear,0,2013-11-01 13:55:00
9:15 AM,55.9,51.4,85,29.92,10.0,Calm,Calm,-,N/A,,Clear,0,2013-11-01 14:15:00
9:35 AM,58.1,52.3,81,29.93,10.0,Calm,Calm,-,N/A,,Clear,0,2013-11-01 14:35:00
9:55 AM,60.6,53.8,78,29.93,10.0,Calm,Calm,-,N/A,,Clear,0,2013-11-01 14:55:00
10:15 AM,62.6,53.4,72,29.94,10.0,WSW,3.5,-,N/A,,Clear,250,2013-11-01 15:15:00
10:35 AM,64.2,53.1,67,29.94,10.0,SW,3.5,-,N/A,,Clear,230,2013-11-01 15:35:00
10:55 AM,65.8,52.2,61,29.94,10.0,Calm,Calm,-,N/A,,Clear,0,2013-11-01 15:55:00
11:15 AM,67.3,52.7,59,29.94,10.0,Calm,Calm,-,N/A,,Clear,0,2013-11-01 16:15:00
11:35 AM,68.5,53.1,58,29.94,10.0,SSW,3.5,-,N/A,,Clear,200,2013-11-01 16:35:00
11:55 AM,70.0,51.8,52,29.94,10.0,Calm,Calm,-,N/A,,Clear,0,2013-11-01 16:55:00
12:15 PM,71.6,51.1,48,29.93,10.0,Calm,Calm,-,N/A,,Clear,0,2013-11-01 17:15:00
12:35 PM,72.1,47.5,41,29.93,10.0,SW,4.6,-,N/A,,Clear,220,2013-11-01 17:35:00
12:55 PM,73.2,47.5,40,29.92,10.0,WSW,4.6,-,N/A,,Clear,240,2013-11-01 17:55:00
1:15 PM,73.0,45.7,38,29.91,10.0,Calm,Calm,-,N/A,,Clear,0,2013-11-01 18:15:00
1:35 PM,73.9,46.4,37,29.90,10.0,SSW,5.8,-,N/A,,Clear,200,2013-11-01 18:35:00
1:55 PM,73.8,46.4,38,29.89,10.0,WSW,4.6,-,N/A,,Clear,240,2013-11-01 18:55:00
2:15 PM,74.3,44.2,34,29.89,10.0,West,3.5,-,N/A,,Clear,270,2013-11-01 19:15:00
2:35 PM,74.3,45.3,36,29.88,10.0,Calm,Calm,-,N/A,,Clear,0,2013-11-01 19:35:00
2:55 PM,74.7,44.6,34,29.88,10.0,WSW,6.9,-,N/A,,Clear,250,2013-11-01 19:55:00
3:15 PM,74.3,45.0,35,29.87,10.0,SSW,3.5,-,N/A,,Clear,210,2013-11-01 20:15:00
4:55 PM,73.9,45.5,36,29.86,10.0,Calm,Calm,-,N/A,,Clear,0,2013-11-01 21:55:00
5:15 PM,73.4,44.6,36,29.86,10.0,Calm,Calm,-,N/A,,Clear,0,2013-11-01 22:15:00
5:35 PM,71.6,51.1,48,29.86,10.0,Calm,Calm,-,N/A,,Clear,0,2013-11-01 22:35:00
5:55 PM,68.0,52.2,57,29.87,10.0,Calm,Calm,-,N/A,,Clear,0,2013-11-01 22:55:00
6:15 PM,64.0,56.1,75,29.87,10.0,Calm,Calm,-,N/A,,Clear,0,2013-11-01 23:15:00
6:35 PM,62.6,54.0,73,29.88,10.0,Calm,Calm,-,N/A,,Clear,0,2013-11-01 23:35:00
6:55 PM,59.5,54.9,84,29.89,10.0,SE,3.5,-,N/A,,Clear,130,2013-11-01 23:55:00
7:15 PM,59.9,55.6,86,29.90,10.0,Calm,Calm,-,N/A,,Clear,0,2013-11-02 00:15:00
7:35 PM,58.8,55.6,89,29.91,10.0,Calm,Calm,-,N/A,,Clear,0,2013-11-02 00:35:00
7:55 PM,58.1,55.2,90,29.91,10.0,Calm,Calm,-,N/A,,Clear,0,2013-11-02 00:55:00
8:15 PM,57.2,54.7,91,29.93,10.0,Calm,Calm,-,N/A,,Clear,0,2013-11-02 01:15:00
8:35 PM,56.3,53.6,91,29.94,10.0,Calm,Calm,-,N/A,,Clear,0,2013-11-02 01:35:00
8:55 PM,55.0,52.7,92,29.94,10.0,Calm,Calm,-,N/A,,Clear,0,2013-11-02 01:55:00
9:15 PM,54.7,52.0,91,29.95,10.0,Calm,Calm,-,N/A,,Clear,0,2013-11-02 02:15:00
9:35 PM,54.7,52.3,92,29.96,10.0,Calm,Calm,-,N/A,,Clear,0,2013-11-02 02:35:00
9:55 PM,54.7,52.3,92,29.96,10.0,Calm,Calm,-,N/A,,Clear,0,2013-11-02 02:55:00
10:15 PM,53.8,51.8,93,29.97,10.0,Calm,Calm,-,N/A,,Clear,0,2013-11-02 03:15:00
10:35 PM,53.6,51.6,93,29.96,10.0,Calm,Calm,-,N/A,,Clear,0,2013-11-02 03:35:00
10:55 PM,53.8,51.8,93,29.97,10.0,Calm,Calm,-,N/A,,Clear,0,2013-11-02 03:55:00
11:15 PM,54.5,52.2,92,29.97,10.0,Calm,Calm,-,N/A,,Clear,0,2013-11-02 04:15:00
11:35 PM,54.5,52.2,92,29.97,10.0,Calm,Calm,-,N/A,,Clear,0,2013-11-02 04:35:00
11:55 PM,55.0,52.7,92,29.97,10.0,Calm,Calm,-,N/A,,Scattered Clouds,0,2013-11-02 04:55:00